Starlink 32845

operational
NORAD ID: 62815 Int'l Des: 2025-018 Owner: SPXS Country: US Constellation: starlink
LEOCIRCULAR

Starlink 32845について

説明を読み込み中...

リアルタイム位置

3D地球を読み込み中...

次回通過

高度履歴

Altitude vs Time

uPlot chart will show altitude changes over time

軌道要素

1 62815U 25018K 25258.13742452 .00053983 00000-0 18212-2 0 9992
2 62815 53.1615 44.7985 0001210 90.4420 269.6720 15.30206369 36292
Epoch: Sep 15, 2025 • Age: 11 hours

現在のステータス

高度 494.2 km
速度 7.62 km/s
衛星直下点 -52.81°S, 120.26°E
打ち上げ日 Jan 24, 2025
運用期間 0.6 years
タイプ internet

技術仕様

分類 Payload
質量 730.00 kg
乾燥質量 700.00 kg
総質量 730.00 kg
長さ 0.30 m
直径 4.10 m
スパン 29.00 m
形状 Box + pan
製造者 SPXS
バスタイプ Starlink V2M
フェーズステータス In Orbit
所有者/国 SPXS/US

大規模コンステレーション

Loading constellations...